Location: Voorhees State Park
(40.6817°N, 74.8983°W)
Time: 00:28:36
(UTC-05:00)

Daily predictions for brighter satellites

Satellite Brightness Start Highest point End
(mag) Time Altitude Azimuth Time Altitude Azimuth Time Altitude Azimuth
Cosmos 2369 Rocket 4.2 03:14:21 23° NNE 03:14:21 23° NNE 03:16:25 10° NNE
Lacrosse 5 3.9 03:28:19 25° ENE 03:28:19 25° ENE 03:30:29 10° NE
USA 234 3.8 03:35:04 10° ENE 03:41:18 47° SE 03:41:54 45° SE
ATLAS 5 CENTAUR R/B 3.5 03:46:24 29° NNE 03:46:24 29° NNE 03:48:59 10° NNE
Cosmos 1943 Rocket 2.8 03:51:54 50° NE 03:51:54 50° NE 03:55:59 10° NNE
CZ-4C R/B 3.1 03:54:45 39° SE 03:55:17 40° ESE 04:00:38 10° NE
Cosmos 1452 Rocket 4.3 04:02:10 45° SE 04:03:02 49° ESE 04:08:07 10° NNE
CZ-4B R/B 3.3 03:58:26 10° NNE 04:03:30 73° NNE 04:03:30 73° NNE
Lacrosse 5 rocket 4.0 04:12:43 11° NNE 04:13:03 11° NNE 04:13:58 10° NE
ADEOS II 2.2 04:09:46 10° N 04:14:12 63° N 04:14:12 63° N
Cosmos 676 Rocket 4.0 04:20:01 27° NNW 04:23:01 83° ENE 04:28:21 10° SSE
Okean O Rocket 3.9 04:18:59 10° N 04:19:45 15° N 04:19:45 15° N
Cosmos 1140 Rocket 3.9 04:27:08 10° NNW 04:32:20 61° ENE 04:37:30 10° SSE
Cosmos 2221 Rocket 3.6 04:38:26 32° S 04:40:32 86° E 04:45:07 10° N
Meteor 1-26 Rocket 4.1 04:41:38 22° SSW 04:45:22 73° W 04:50:59 10° N
Nadezhda 2 Rocket 4.5 04:40:36 10° NNW 04:46:31 53° W 04:52:26 10° SSW
Okean 1-7 2.9 04:45:42 23° S 04:48:19 88° E 04:52:35 10° N
Meteor 1-25 Rocket 4.5 04:46:19 10° N 04:52:10 74° E 04:58:00 10° SSE
Cosmos 1656 Rocket 3.6 04:50:01 30° SW 04:52:54 71° WNW 04:58:36 10° NNE
Cosmos 2219 3.3 04:48:46 10° NNW 04:54:29 79° ENE 05:00:06 10° SSE
Cosmos 2369 Rocket 3.8 04:56:10 18° NW 04:56:10 18° NW 04:59:13 10° N
Meteor 1-31 Rocket 2.7 04:53:54 10° N 04:57:46 63° WNW 04:58:26 52° WSW
Cosmos 2227 Rocket 4.1 04:53:26 10° N 04:58:19 28° NE 05:03:10 10° ESE
GEOS 3 Rocket 3.8 04:56:26 10° SSE 05:01:15 44° WSW 05:02:58 33° WNW
ATLAS CENTAUR R/B 4.2 04:59:20 29° W 05:02:13 38° SW 05:17:39 10° SSE
Cosmos 1850 Rocket 4.2 05:00:16 10° NNW 05:05:37 77° ENE 05:10:55 10° SSE
Cosmos 1417 Rocket 4.4 05:01:28 10° SSW 05:07:32 60° W 05:13:36 10° N
Cosmos 1782 Rocket 3.7 05:03:21 10° NNW 05:07:41 49° W 05:11:56 10° SSW
Cosmos 1745 Rocket 3.9 05:01:36 10° N 05:07:47 89° E 05:13:54 10° S
Lacrosse 5 2.9 05:07:31 26° WNW 05:08:47 29° NNW 05:13:10 10° NNE
Cosmos 1954 Rocket 4.3 05:06:44 10° NNW 05:11:46 44° WSW 05:16:47 10° S
Ariane Rocket 4.2 05:11:00 10° NNE 05:15:52 44° E 05:20:40 10° S
Meteor 1-10 Rocket 4.3 05:12:40 10° S 05:18:13 80° E 05:23:53 10° NNE
Cosmos 1420 Rocket 4.0 05:13:54 12° SW 05:18:39 56° WNW 05:23:46 10° N
SKYMED 2 3.5 05:15:25 10° SSE 05:19:46 86° W 05:24:08 10° NNW
Meteor 2-10 Rocket 4.0 05:17:38 22° WSW 05:20:00 33° WNW 05:24:35 10° N
Cosmos 1633 4.2 05:17:30 10° N 05:20:54 36° ENE 05:24:15 10° SSE
Okean-O 3.1 05:16:58 10° N 05:21:03 37° WNW 05:23:59 17° SW
ERS-2 4.3 05:21:13 10° NNW 05:21:59 13° NW 05:21:59 13° NW
NOAA 6 4.0 05:18:38 10° N 05:23:46 66° WNW 05:28:50 10° SSW
USA 234 3.5 05:18:02 10° NE 05:24:21 54° NW 05:29:16 17° WSW
Tiangong 1 1.1 05:24:16 36° WNW 05:25:11 56° N 05:28:05 10° ENE
ATLAS 5 CENTAUR R/B 3.6 05:27:58 14° NW 05:29:27 16° NNW 05:32:37 10° N
Cosmos 1674 Rocket 4.1 05:27:37 10° S 05:31:57 62° E 05:36:21 10° NNE
Cosmos 1943 Rocket 3.7 05:33:27 16° WNW 05:34:49 17° NW 05:38:21 10° N
Okean 2 Rocket 3.7 05:32:16 10° NNW 05:36:11 32° W 05:40:05 10° SSW
Radarsat Rocket 4.2 05:30:40 10° NNE 05:37:51 72° WNW 05:44:10 10° SSW
DMSP B5D1-3 4.4 05:32:53 10° S 05:37:58 77° WSW 05:43:06 10° NNW
Thor Agena Rocket 4.2 05:35:54 10° SSW 05:40:28 31° W 05:45:02 10° NW
CZ-4C R/B 3.0 05:39:58 15° W 05:43:50 33° NW 05:49:18 10° NNE
Meteor 1-28 Rocket 3.2 05:41:05 10° S 05:44:44 57° W 05:48:27 10° NNW
Cosmos 1607 3.9 05:38:42 10° SW 05:44:48 77° WNW 05:51:01 10° NNE
Cosmos 1536 4.3 05:43:31 10° N 05:47:19 40° ENE 05:51:06 10° SSE
ATLAS 3B R/B 2.9 05:40:50 10° SW 05:48:26 78° NW 05:55:46 10° NNE
Cosmos 1110 Rocket 4.0 05:46:06 10° SSW 05:51:16 86° ESE 05:56:28 10° NNE
Okean 1 Rocket 3.7 05:48:17 10° N 05:52:40 61° E 05:56:58 10° SSE
Lacrosse 5 rocket 1.8 05:49:31 10° NW 05:53:01 49° NE 05:56:32 10° ESE
Meteor 1-27 Rocket 3.8 05:47:51 10° S 05:53:38 86° W 05:59:34 10° N
ADEOS II 3.9 05:52:39 10° NW 05:53:54 11° WNW 05:55:08 10° WNW
Cosmos 2151 Rocket 3.9 05:51:36 10° NNW 05:55:52 43° W 06:00:06 10° SSW
CSL-04 Rocket 3.7 05:50:48 10° NNE 05:56:13 90° S 06:01:41 10° SSW
Cosmos 2082 4.0 05:53:59 10° NNW 05:59:41 74° ENE 06:05:17 10° SSE
COSMO-SKYMED 1 3.6 06:04:25 10° SSW 06:07:59 25° W 06:11:34 10° NW
Cosmos 1606 3.8 06:06:46 10° SW 06:10:00 25° WNW 06:13:16 10° NNW
Cosmos 1782 4.1 06:07:35 10° WSW 06:10:31 20° WNW 06:13:28 10° NNW
Cosmos 1602 3.9 06:06:59 10° NNW 06:10:51 51° W 06:14:40 10° S
Helios 1B rocket 4.4 06:09:07 10° SE 06:12:48 33° ENE 06:16:32 10° N
CZ-2C R/B 2.7 06:07:57 10° NNE 06:12:53 81° E 06:17:58 10° S
Cosmos 2369 3.7 06:08:29 10° SSW 06:14:07 79° WNW 06:19:48 10° NNE
